Theta_e
295 295 294 295 294 293 291 291 291 290 292 291 288 289 293 294 289 288 294 296 293 296 298 300 299 299 300 300 299 299 299 300 301 301 301 303 303 305 306 308 307 306 306 306 305 304 304 304 303 303 303 303 303 303 304 304 304 305 305 303 303 303 302 302 303 303 302 301 301 298 295 295 294 294 294 294 294 294 294 295 296 297 298 298 296 295 293
293 294 294 295 293 293 292 291 292 292 292 291 292 292 294 294 293 295 295 297 297 299 300 301 302 303 302 300 299 299 298 299 302 302 301 302 302 303 304 306 306 307 307 307 306 306 304 304 303 303 303 303 302 302 302 303 303 303 302 301 301 301 300 300 299 298 297 294 294 293 294 294 293 293 293 293 293 292 293 293 293 292 293 294 295 295 293
287 292 294 295 294 293 291 292 292 292 292 292 293 293 294 294 294 295 295 295 295 300 303 303 304 304 303 299 297 297 299 300 300 301 301 302 303 303 304 306 308 307 306 306 306 305 305 304 304 304 303 303 303 302 302 302 302 302 301 299 298 298 299 297 295 295 294 293 292 292 293 292 292 292 292 292 291 291 291 291 291 291 292 292 291 292 292
285 290 292 292 294 293 291 290 291 292 291 289 291 290 294 293 291 293 293 291 293 299 302 303 303 303 302 301 301 301 302 301 300 300 301 302 303 304 304 305 307 308 306 306 306 305 306 305 305 304 303 303 303 302 302 301 301 298 298 299 298 297 297 294 293 293 293 293 292 292 291 291 291 291 290 290 291 291 291 290 289 290 290 291 291 291 291
285 289 292 291 290 288 285 287 291 293 293 294 295 295 296 296 296 292 289 291 297 300 301 300 300 301 301 301 301 302 303 304 304 304 304 303 304 304 305 305 305 308 308 308 309 308 307 306 305 304 304 303 302 303 302 302 300 296 296 297 298 297 294 293 293 293 292 291 292 292 291 290 290 290 289 289 289 289 290 290 289 289 289 289 289 289 289
284 287 288 289 286 280 281 294 297 297 294 294 292 292 294 296 297 295 297 298 300 301 299 299 299 298 299 301 303 304 303 303 303 304 304 305 306 306 306 306 306 308 309 308 308 307 307 307 306 305 304 303 303 303 302 300 297 296 296 296 298 296 294 293 293 292 291 291 290 292 291 290 290 289 289 289 289 288 289 288 288 288 288 288 288 288 288
283 286 286 284 278 281 293 301 300 299 298 297 295 296 296 297 297 297 297 298 299 301 301 302 301 302 302 302 302 303 304 304 303 303 304 304 305 306 306 306 306 306 306 307 308 306 305 305 305 304 302 302 302 301 300 298 297 296 296 296 296 296 294 293 292 291 291 291 291 290 290 289 288 288 289 288 288 288 288 287 287 287 288 287 287 287 287
287 284 284 277 279 290 297 297 299 300 299 298 297 294 297 298 298 298 296 298 300 301 301 302 303 302 302 303 303 304 304 305 304 304 304 305 305 305 307 307 307 306 306 306 305 306 305 304 303 303 302 301 300 299 299 298 296 296 296 296 296 296 295 294 293 292 292 291 291 290 289 288 288 288 288 288 287 287 287 287 287 287 287 287 286 286 287
281 283 284 284 291 290 291 293 294 296 294 294 293 288 293 298 300 299 298 298 300 300 301 302 303 303 301 299 300 304 304 305 305 306 305 306 307 307 307 311 309 313 311 307 306 305 304 303 302 302 301 299 298 298 297 297 296 296 296 296 296 295 294 294 293 293 292 291 290 288 288 287 287 287 287 287 287 287 286 287 286 286 286 286 286 286 286
287 283 282 284 284 281 288 295 298 301 301 301 300 295 292 300 300 301 300 299 300 300 301 301 301 301 296 294 297 302 303 304 305 305 306 306 306 305 304 307 303 304 305 303 301 303 300 300 300 300 299 298 297 296 296 296 295 294 294 295 296 295 295 294 293 293 292 291 289 288 287 287 287 287 287 287 286 286 286 286 286 286 286 286 286 286 286
285 285 282 282 281 285 294 296 298 301 302 302 300 293 288 298 300 301 300 299 300 300 300 300 300 296 291 293 298 303 304 304 304 303 304 305 304 305 305 304 303 304 301 300 299 299 299 298 299 298 297 297 296 295 295 295 294 293 293 294 294 295 295 295 294 293 292 291 289 288 287 287 287 287 287 286 286 286 286 286 286 286 286 285 285 286 286
285 286 284 283 286 287 291 297 298 299 302 302 296 284 285 297 301 301 300 299 300 300 300 300 300 296 292 294 299 301 304 305 306 305 305 307 304 302 299 297 296 296 296 296 296 298 298 298 297 296 296 296 294 294 294 294 293 293 293 294 295 295 295 294 293 292 290 289 288 288 287 287 287 287 287 286 285 285 286 286 285 285 285 285 285 285 285
285 286 286 288 289 290 296 296 298 300 302 298 286 282 291 298 300 301 301 300 301 301 300 301 296 299 301 302 299 298 297 298 297 296 295 295 295 296 296 295 291 294 295 296 297 297 297 295 295 295 295 294 293 293 293 292 291 293 294 295 294 294 294 292 292 290 289 288 288 287 287 287 287 287 286 286 285 285 285 285 285 284 284 284 284 284 285
285 286 285 286 290 293 295 296 299 301 296 286 285 295 300 299 298 301 302 301 301 302 302 301 301 302 303 302 299 297 298 299 297 295 294 294 293 293 292 289 291 294 293 294 294 293 293 294 294 294 294 292 292 292 292 291 292 294 293 294 294 293 293 292 290 288 288 287 288 287 287 287 286 285 286 285 285 285 285 284 283 283 283 283 283 283 283
288 287 284 284 280 290 297 296 295 297 290 291 297 294 295 299 297 298 298 302 301 302 300 302 303 301 300 300 299 298 297 296 296 295 295 295 294 293 293 293 292 293 294 293 292 291 291 292 292 292 291 290 290 289 291 291 292 293 292 292 291 290 289 289 288 287 287 287 287 287 286 286 286 285 285 284 284 284 284 283 283 282 282 282 282 281 282
284 284 282 283 291 293 297 297 291 295 298 300 296 297 294 296 297 297 297 297 299 300 301 299 299 300 299 297 297 295 295 294 293 292 292 292 292 291 290 290 291 293 292 291 290 290 290 291 290 290 289 289 289 289 289 292 291 291 291 290 289 288 287 287 286 286 286 286 286 286 286 286 285 284 283 284 283 283 283 282 282 281 281 281 281 280 280
289 287 291 290 293 296 298 298 299 299 301 299 299 300 299 297 296 298 298 297 298 298 299 300 300 298 298 296 296 295 294 293 293 292 292 291 291 290 290 289 290 291 291 289 288 288 289 289 290 288 288 287 287 287 289 289 288 288 288 287 287 287 286 286 286 285 285 285 285 285 285 285 284 284 283 283 282 282 282 282 281 281 280 280 280 280 280
295 291 290 296 292 295 296 296 298 299 299 295 297 297 297 299 299 296 297 299 298 296 298 297 295 297 297 295 294 295 294 292 291 290 290 289 289 289 288 288 288 288 288 287 287 286 287 288 289 288 288 287 286 287 288 288 288 287 286 286 286 285 285 285 285 285 284 284 284 285 285 285 284 284 283 282 283 282 281 282 282 281 281 280 280 280 280
291 287 293 292 293 295 295 296 295 298 299 296 295 298 301 299 297 296 294 296 297 296 296 296 295 295 295 294 294 293 292 291 291 291 290 289 289 288 287 286 287 287 286 286 285 285 285 286 286 286 285 285 286 286 286 287 286 286 286 285 285 285 284 284 284 284 284 283 283 283 284 284 284 283 282 282 282 281 281 281 281 281 281 280 280 280 280
289 290 292 293 295 296 297 297 294 295 297 296 296 296 294 293 292 294 292 292 293 294 294 295 295 294 294 294 292 292 291 291 290 290 289 288 287 286 286 286 286 286 286 285 285 285 285 285 284 283 282 282 283 284 285 285 285 285 285 285 285 284 283 283 283 283 284 280 282 282 283 283 283 283 282 282 282 281 281 281 281 280 281 280 279 280 280
292 291 291 293 293 294 295 296 297 298 298 297 295 292 292 291 291 290 289 291 292 293 294 294 294 293 293 293 293 292 291 290 289 289 288 288 287 286 285 285 286 286 285 284 284 284 283 283 282 281 280 280 281 281 283 284 285 285 284 283 282 282 282 282 282 282 283 282 283 282 282 282 283 283 282 282 282 282 283 284 283 282 281 281 281 281 281
288 289 289 289 288 288 292 294 295 295 298 298 295 292 291 291 291 290 290 288 290 291 292 293 294 293 292 292 292 290 290 289 288 286 286 285 285 284 284 284 284 284 283 283 283 283 282 281 280 279 278 279 279 280 281 282 283 283 282 282 281 281 281 281 281 281 281 281 281 281 281 281 281 281 280 282 282 282 282 283 283 282 283 282 282 282 282
289 293 294 295 296 296 295 296 296 296 297 297 294 292 292 292 292 291 290 289 289 289 289 290 293 293 292 292 292 290 288 287 287 286 286 285 284 284 284 283 282 282 282 282 282 280 279 278 277 277 276 277 277 277 278 280 282 282 283 282 281 280 281 281 280 281 281 280 280 280 280 280 280 280 280 280 281 280 280 282 282 282 282 281 281 283 282
294 295 294 296 295 295 296 297 297 297 297 296 294 294 294 292 291 291 291 292 291 289 288 288 290 291 291 291 290 287 285 285 285 285 284 284 283 283 283 282 281 281 280 280 279 278 277 276 276 276 275 275 275 275 276 278 280 281 282 284 282 281 280 279 279 280 280 280 279 279 279 279 279 279 279 279 279 280 280 280 280 281 281 281 281 281 282
295 295 296 296 298 295 292 295 297 297 295 295 295 294 292 291 290 291 291 289 289 289 288 287 288 290 289 288 287 286 284 284 283 282 282 282 281 281 280 280 279 279 278 278 277 277 277 276 275 274 273 273 273 273 274 276 278 279 279 281 280 279 279 279 278 278 279 279 278 278 277 277 277 278 278 279 279 279 279 280 280 280 280 281 281 281 281
294 295 294 292 290 291 293 291 292 293 293 294 292 289 289 288 288 288 287 288 288 288 287 287 287 287 287 286 285 283 282 281 282 283 282 281 280 279 278 277 277 277 277 276 275 275 274 274 273 272 271 271 271 271 272 275 276 276 277 277 278 279 279 278 279 278 278 278 278 278 277 277 278 277 278 278 279 279 279 278 277 278 279 280 280 281 281
290 293 292 291 291 289 290 293 293 291 291 291 290 287 286 285 284 284 283 283 284 285 285 286 286 285 284 284 283 283 281 281 281 280 279 278 277 276 276 276 276 275 275 274 273 273 273 273 272 270 269 269 269 270 271 273 274 274 275 276 276 273 272 276 279 279 278 278 278 278 277 277 277 277 277 277 277 277 278 278 278 278 278 279 280 280 280
291 290 291 293 291 291 291 284 286 287 287 287 286 284 284 284 283 282 281 281 281 282 283 284 284 282 281 281 281 280 281 280 279 278 277 276 275 275 275 275 275 274 273 272 272 273 273 272 271 270 269 269 269 269 270 272 274 274 274 275 277 277 276 275 277 278 277 277 278 277 277 277 277 277 277 277 277 277 277 277 277 277 277 279 278 280 281
286 286 284 284 288 288 286 285 285 285 284 284 285 284 284 283 282 282 282 282 281 281 281 282 282 282 282 282 281 280 279 278 277 276 275 275 275 275 275 274 273 273 272 271 271 272 271 271 270 269 268 268 268 268 269 271 272 272 273 275 277 277 277 276 276 276 276 276 275 275 276 276 276 276 276 276 276 276 277 277 277 277 277 278 277 276 279
283 282 283 284 285 285 285 284 284 283 283 284 284 284 285 284 283 282 281 281 281 280 280 280 280 279 280 280 279 278 276 275 274 274 274 274 274 274 275 275 275 274 272 270 269 270 270 269 268 267 266 267 267 268 269 271 271 270 270 270 271 273 273 272 273 274 274 275 273 273 273 274 274 275 275 275 275 275 275 276 276 276 276 276 278 276 276
283 283 284 284 285 285 285 283 282 283 283 284 284 284 284 284 282 281 280 280 279 278 277 276 275 275 274 274 274 274 274 274 273 273 272 272 271 271 272 274 276 272 269 268 268 268 268 267 267 266 266 266 266 267 269 270 272 272 272 272 271 271 271 272 273 273 274 273 273 273 273 274 274 274 274 274 274 274 275 275 274 274 275 275 276 276 276
281 281 282 282 282 282 281 282 282 282 283 283 283 283 282 281 280 279 278 277 276 275 275 274 274 273 273 273 273 272 272 271 271 270 270 270 269 269 268 268 267 267 267 267 267 266 267 266 265 265 265 266 266 266 267 269 271 271 271 270 271 271 271 272 272 272 271 271 272 272 272 273 273 273 273 273 273 273 273 273 273 273 274 274 274 275 275
280 279 279 279 279 280 280 280 281 281 282 282 281 281 280 279 278 277 276 275 275 275 273 272 271 272 272 272 272 271 271 270 270 269 268 268 268 268 268 268 267 267 266 266 266 266 265 264 265 265 265 265 265 265 266 266 268 269 269 270 270 270 269 270 269 271 270 270 271 271 271 271 272 272 272 272 272 272 272 272 272 272 273 273 273 274 275
279 280 282 281 281 281 279 279 280 278 277 277 277 276 275 275 274 274 274 274 273 272 271 271 271 272 272 272 272 272 273 273 271 268 266 267 267 267 267 266 265 264 264 265 265 265 264 263 264 265 265 264 264 264 264 265 267 267 267 268 268 269 270 269 269 270 270 270 270 268 269 268 269 270 270 270 271 271 271 271 271 271 271 271 272 273 274
277 277 279 280 281 280 280 279 277 276 275 273 272 272 272 272 273 272 272 272 271 271 271 271 271 271 270 269 268 268 268 267 266 266 266 266 267 267 267 266 265 264 263 263 263 263 263 263 262 263 265 264 263 262 263 263 264 265 265 266 266 267 268 268 269 269 268 268 268 268 269 268 268 268 268 268 268 269 269 269 269 269 269 270 270 271 272
274 273 273 273 274 275 274 274 273 273 272 271 270 270 270 270 270 269 269 269 270 271 270 269 269 268 267 267 266 265 265 265 264 264 264 265 267 269 268 267 266 265 264 263 263 262 264 263 263 263 265 264 263 261 261 262 263 264 264 265 266 267 267 267 267 267 267 267 267 267 267 267 266 266 266 266 267 267 268 268 268 268 268 269 269 269 269
270 270 269 269 269 268 269 269 269 268 267 266 266 265 264 264 264 266 267 268 268 269 269 268 267 265 263 263 263 263 263 264 265 265 265 265 267 269 268 268 267 267 266 264 262 263 263 262 262 263 264 263 263 261 261 261 263 264 265 266 265 266 266 266 266 266 266 266 266 266 266 266 266 267 267 267 266 267 267 267 267 267 268 268 268 268 268
266 267 267 266 266 266 266 266 265 264 264 263 263 263 262 262 263 263 264 265 266 267 267 266 265 264 263 263 262 261 261 261 261 262 263 264 267 267 267 267 267 267 265 262 262 262 262 261 262 263 263 262 261 261 261 261 261 264 265 265 264 265 265 265 265 265 265 265 265 265 265 265 265 266 266 267 267 266 266 266 266 266 266 267 267 267 267
264 265 265 265 265 264 263 263 262 263 263 262 262 262 262 263 263 263 262 263 264 266 266 266 266 265 264 263 262 261 260 260 261 262 264 265 265 263 261 260 260 261 261 261 262 262 262 261 261 263 263 261 261 262 261 261 261 263 264 264 263 264 264 264 264 264 264 264 264 264 264 264 264 264 265 265 266 266 266 266 265 265 265 265 266 266 267
263 264 263 263 263 261 260 260 260 260 261 262 262 262 263 262 262 262 262 261 262 263 265 266 266 265 264 263 263 261 260 260 260 262 264 263 262 261 261 261 260 260 261 261 261 262 260 260 261 262 262 262 261 262 261 261 261 262 263 263 263 263 263 263 263 263 263 263 263 263 263 264 264 264 264 264 264 264 265 265 265 265 265 265 265 265 266
262 263 262 261 261 260 259 258 258 258 259 259 259 260 261 262 262 261 260 260 260 261 262 263 263 262 262 261 261 260 260 260 260 260 262 265 266 267 266 262 260 260 260 260 260 260 260 260 261 261 262 262 262 260 260 260 261 262 262 262 262 262 262 263 262 263 263 263 263 263 263 263 263 263 263 263 264 264 264 264 263 264 264 264 264 264 264
262 262 262 261 261 260 260 259 259 258 257 257 258 259 259 260 260 260 260 260 259 259 259 259 259 260 260 260 260 260 260 259 259 260 260 261 264 267 266 261 260 258 258 258 259 260 261 261 261 260 260 260 260 259 259 259 261 261 262 261 261 261 261 261 261 261 262 262 262 262 262 262 261 262 262 262 262 262 262 262 263 263 263 263 263 263 264
262 261 260 260 260 259 259 259 258 257 257 256 257 257 258 259 260 260 259 259 259 259 259 259 259 259 259 260 261 261 260 260 260 260 260 259 257 258 261 260 259 258 257 258 259 259 260 260 260 259 258 258 258 258 258 260 261 261 261 261 260 260 260 260 260 261 261 260 261 261 261 261 261 261 261 261 262 262 262 262 261 262 262 262 263 263 264
260 260 260 260 260 260 260 259 259 258 257 256 256 256 256 256 257 258 258 258 258 257 258 258 258 258 259 259 261 262 262 261 261 262 262 261 259 258 259 259 259 258 257 258 258 258 259 259 258 258 257 257 258 258 258 259 260 260 260 260 259 259 259 259 259 260 260 260 260 260 260 260 260 260 260 260 260 261 261 261 261 262 262 262 263 263 263
257 258 258 259 259 259 259 258 258 257 256 256 256 255 255 255 255 255 256 256 256 256 256 257 257 257 257 258 258 258 258 258 259 260 263 265 266 261 258 256 258 258 257 256 257 258 258 258 258 257 257 257 257 257 258 259 260 260 259 259 259 259 259 259 259 259 259 259 259 260 260 260 260 260 260 260 260 260 260 260 261 261 261 261 262 262 262
256 256 256 255 256 256 256 257 257 257 257 257 256 255 255 254 254 254 254 254 255 255 255 255 255 255 255 255 256 257 257 257 258 258 259 259 260 259 258 256 257 257 256 256 257 257 258 258 257 257 257 257 257 257 258 258 258 258 258 258 258 258 258 259 259 258 259 259 259 259 259 259 259 259 260 259 260 260 260 261 260 260 261 261 261 261 261
255 255 255 255 255 255 256 257 258 259 261 261 259 257 255 254 254 254 253 253 253 253 254 254 254 254 254 254 254 257 259 260 260 259 258 258 257 256 256 256 256 255 256 255 256 256 257 257 256 256 256 256 256 256 256 257 257 256 257 257 257 257 258 258 258 258 258 258 259 259 259 259 258 258 259 259 259 259 259 260 259 260 260 261 261 261 261
254 253 253 254 255 256 257 258 258 257 256 255 255 255 254 254 254 254 253 253 253 253 253 254 254 253 253 253 253 253 255 256 260 259 256 255 257 256 255 256 255 254 254 255 255 256 256 255 255 255 256 256 255 256 256 256 256 256 256 256 256 257 257 257 258 258 258 258 258 257 257 258 258 258 259 259 259 259 259 259 259 260 260 260 260 261 261
253 253 254 255 255 256 257 258 258 257 256 255 255 255 254 253 254 255 255 254 254 255 255 254 253 252 253 252 252 253 254 255 255 257 256 254 253 254 254 254 253 254 254 255 254 255 255 255 255 255 255 255 255 255 256 256 255 256 256 256 256 257 257 257 257 258 258 257 257 258 258 257 258 258 258 258 259 259 259 259 259 260 260 260 260 260 260
255 256 255 255 255 254 255 258 257 256 255 255 255 255 253 255 258 258 256 254 254 254 254 255 256 255 255 254 254 254 254 253 253 253 252 252 252 252 253 253 253 253 253 253 253 254 255 255 254 254 254 253 254 254 254 255 254 255 255 256 256 256 257 257 257 257 257 257 257 257 257 258 258 258 258 258 258 259 259 259 259 259 259 259 259 259 259
254 254 254 253 253 253 252 252 252 253 253 253 253 253 253 254 255 255 255 254 254 254 255 256 256 256 255 254 254 254 253 252 252 251 252 252 253 253 253 253 253 253 253 253 253 253 254 253 253 253 253 254 254 254 254 254 254 254 255 255 255 255 255 256 256 256 256 257 257 257 257 257 257 257 257 257 257 258 258 258 258 258 258 259 259 259 259
251 252 252 252 252 252 252 252 252 252 252 252 253 253 253 253 254 253 254 253 253 253 253 253 254 256 254 253 253 253 253 252 252 252 253 252 252 252 253 253 253 253 253 253 253 252 253 253 253 253 253 253 253 253 254 254 254 254 254 254 255 255 255 255 255 256 255 256 256 256 256 257 257 257 257 257 257 257 257 257 257 258 258 258 258 259 259
Wind_Speed
8 13 13 16 16 18 18 23 21 19 19 19 16 17 21 19 15 18 20 16 19 25 15 13 9 8 9 8 7 4 2 2 1 2 3 3 3 3 2 1 1 1 2 2 3 5 5 5 6 6 6 6 6 7 7 7 7 7 6 4 4 4 4 5 5 5 5 4 4 4 4 4 4 4 4 4 4 5 5 6 6 7 8 11 11 10 7
6 10 14 15 17 14 13 17 19 20 20 22 24 23 23 22 17 21 19 12 20 19 9 10 13 11 9 4 5 3 2 3 2 2 4 5 5 5 3 2 1 2 2 3 3 5 6 7 7 7 7 8 8 8 8 8 7 6 5 5 4 5 5 5 3 3 4 3 4 4 5 5 5 5 5 5 5 5 5 4 4 4 4 5 10 12 11
3 4 11 13 15 16 16 18 20 21 20 21 24 25 24 19 20 24 23 16 17 18 7 7 7 7 7 5 2 5 7 6 7 8 9 8 7 6 4 2 3 3 3 3 4 5 7 8 9 8 8 7 7 7 8 8 7 6 5 6 4 4 5 2 1 2 3 4 4 5 5 5 5 6 6 6 6 6 5 5 6 6 6 7 5 7 11
3 4 10 13 12 10 10 13 17 20 22 22 25 22 19 14 20 24 18 12 17 15 7 9 10 10 11 11 9 8 7 9 10 11 12 12 9 6 5 5 4 4 4 5 5 6 7 7 7 7 7 7 7 7 8 9 7 6 6 6 6 5 2 2 2 2 2 3 4 4 5 6 6 6 7 7 7 8 8 7 6 6 5 5 8 7 8
6 8 10 12 6 5 6 12 20 28 29 25 17 16 14 21 22 13 13 19 22 2 4 6 5 8 11 11 11 13 15 13 11 11 11 10 11 10 8 7 6 4 4 5 5 5 5 6 6 7 7 6 6 6 7 7 5 7 6 6 6 5 4 4 3 4 3 3 3 4 5 4 6 6 7 7 7 8 9 8 8 9 9 7 7 8 9
6 7 6 7 7 10 13 19 24 23 22 23 18 18 22 21 16 16 19 19 8 5 5 5 7 10 11 12 13 12 11 11 15 17 18 15 8 8 8 7 7 5 4 4 5 6 5 5 6 5 7 7 5 5 6 6 7 6 7 6 6 7 6 5 5 5 5 4 4 4 4 5 5 6 7 7 5 4 6 6 8 8 8 9 8 10 10
9 10 11 8 13 16 16 5 12 21 22 19 21 22 19 20 23 25 24 21 18 10 6 6 8 9 10 11 13 14 14 15 15 16 14 13 11 9 8 6 5 7 7 5 3 4 5 5 5 5 5 6 6 6 6 6 6 6 6 7 6 6 7 6 6 6 6 5 5 5 5 3 3 4 6 5 5 5 6 8 8 9 9 8 8 7 9
6 7 10 10 17 13 6 2 10 16 18 21 17 19 21 26 26 26 24 26 20 15 15 12 8 8 10 10 13 14 14 14 15 14 13 11 11 12 8 5 6 5 6 7 6 4 3 4 4 4 6 7 7 7 7 7 7 7 7 7 6 6 6 6 6 6 6 6 6 5 5 4 4 4 4 5 7 6 5 4 3 3 3 4 8 9 8
11 10 11 15 3 3 7 10 8 16 16 18 20 16 20 24 20 21 23 25 20 16 16 14 11 6 6 9 13 14 16 17 17 15 14 12 11 11 11 1 1 1 2 4 3 4 4 4 4 4 5 7 8 7 7 6 6 7 7 7 7 7 6 6 7 7 6 6 6 4 4 5 6 5 5 5 4 3 5 5 5 5 5 6 6 8 8
6 11 8 5 8 10 16 24 18 20 14 14 15 12 14 11 20 19 19 18 15 16 16 14 10 4 7 12 15 11 17 20 15 12 12 12 11 11 8 3 2 5 3 2 2 4 5 5 5 4 4 6 7 8 7 7 7 6 7 8 7 6 6 6 6 6 7 7 5 5 5 6 6 4 4 3 4 4 6 7 6 5 5 5 5 6 8
6 8 8 9 11 20 4 9 15 15 11 12 14 6 17 12 20 19 20 19 16 15 15 15 10 6 8 16 11 4 9 9 11 13 12 13 12 9 4 2 3 1 3 3 3 3 4 6 6 6 6 6 6 6 6 6 6 6 6 6 5 6 5 6 6 6 6 6 5 6 6 6 5 5 5 5 5 4 4 4 5 4 5 6 6 5 6
10 11 10 12 10 12 6 10 13 18 16 16 13 5 18 7 17 19 20 19 16 16 19 18 12 13 13 18 2 5 5 5 2 3 3 2 2 2 2 3 3 2 2 2 1 1 1 2 5 6 6 5 5 5 6 6 6 7 7 6 5 4 4 5 6 6 5 6 5 6 6 5 5 5 4 5 5 5 4 3 4 4 4 4 8 7 6
13 16 8 6 6 2 7 12 17 17 19 18 12 20 1 12 20 22 20 21 21 21 18 11 10 15 17 9 8 5 6 6 4 4 3 2 1 1 1 1 3 1 1 1 1 3 4 4 4 5 5 6 5 5 6 6 5 6 6 7 6 6 6 6 6 6 4 5 7 6 5 6 5 5 5 6 6 6 6 5 5 5 7 6 6 6 4
11 13 14 11 5 2 11 8 16 18 15 11 16 2 1 8 3 3 14 16 13 10 12 12 13 13 12 8 4 6 5 5 5 4 3 3 3 3 3 3 1 1 2 3 4 5 4 4 4 4 5 6 6 6 6 6 5 4 5 6 6 6 7 7 5 5 5 4 4 5 5 6 6 5 4 5 5 6 4 6 7 7 7 4 3 3 2
8 5 10 6 13 12 19 15 7 14 13 4 7 4 4 3 6 8 5 10 10 9 9 9 11 11 7 5 6 5 6 6 5 4 4 4 3 3 3 3 4 1 3 4 6 6 5 5 4 2 3 4 4 4 4 3 3 4 5 5 6 6 5 5 5 5 5 6 5 5 6 6 7 7 6 6 5 5 6 6 6 7 7 6 5 3 2
14 17 14 11 5 11 17 16 13 9 2 1 10 9 7 3 5 8 8 6 7 8 9 9 10 8 4 3 5 6 5 5 5 5 5 4 4 4 3 3 3 3 5 6 6 7 6 5 4 3 3 3 3 3 3 4 4 4 4 4 4 5 5 5 5 4 5 5 4 4 5 6 6 7 6 6 5 5 6 6 5 5 5 5 6 6 7
13 11 6 1 9 18 11 12 10 14 8 2 3 6 8 9 4 3 6 8 6 8 7 4 3 3 4 4 6 6 6 6 5 5 4 4 4 4 4 4 4 4 6 7 7 8 6 6 4 2 2 4 4 4 3 4 2 3 3 4 4 4 4 4 4 4 4 3 5 5 5 6 7 5 6 6 5 4 4 4 4 4 4 4 4 4 4
10 0 3 2 2 14 17 1 4 18 9 3 2 6 8 5 6 9 6 4 6 5 4 5 2 5 4 6 5 5 7 6 6 6 5 5 5 5 5 5 6 6 7 7 7 8 7 6 4 3 2 3 5 3 4 3 4 4 5 5 5 5 4 4 5 5 5 4 4 4 4 2 3 3 7 8 6 5 5 4 4 4 4 4 3 4 4
8 15 11 10 9 8 12 6 1 5 7 6 4 3 3 4 4 5 5 4 5 8 8 8 6 4 4 6 5 6 6 6 6 6 6 5 4 5 5 4 4 6 6 7 7 7 7 4 5 4 5 5 5 4 3 3 4 5 5 5 6 5 5 4 4 4 5 3 3 3 2 3 2 3 3 3 4 5 5 5 5 5 5 4 4 4 6
14 4 10 7 10 12 10 6 8 6 7 5 1 2 3 4 4 4 5 4 5 6 7 4 6 6 5 8 8 6 5 6 6 6 6 6 6 5 5 4 4 6 7 8 8 7 6 5 5 5 6 6 5 5 4 4 4 5 5 5 5 5 5 4 3 3 3 5 4 3 2 3 3 3 3 3 4 5 8 8 8 8 8 8 10 10 11
5 4 4 7 11 8 10 5 5 9 11 10 7 5 4 4 6 6 4 3 3 5 5 5 5 8 5 6 7 7 6 6 6 5 6 5 6 6 4 3 4 6 8 8 8 8 7 5 5 6 6 5 4 4 3 3 3 5 5 6 6 6 4 4 4 3 2 3 2 2 2 1 1 2 3 4 4 2 3 4 6 8 7 7 8 7 7
10 16 15 12 12 10 13 9 9 8 12 13 9 6 3 4 7 6 7 4 4 3 3 2 6 10 8 7 9 9 6 7 7 7 6 6 6 6 5 5 7 8 8 8 9 8 6 5 6 6 5 5 5 3 3 2 3 6 6 5 5 4 3 3 3 3 3 2 1 2 2 1 1 0 5 3 3 0 2 6 4 2 1 3 3 5 6
18 14 9 13 9 3 10 14 16 12 9 9 11 12 10 6 5 6 9 9 5 2 2 3 3 7 7 8 8 9 7 7 6 7 7 7 6 6 5 7 8 8 8 7 8 8 6 5 5 6 5 5 5 5 4 3 3 5 5 5 4 4 3 3 3 3 2 2 2 1 1 1 1 1 1 0 1 2 4 4 1 5 2 0 1 1 3
2 12 18 17 12 13 13 16 15 14 9 11 12 10 7 7 7 6 6 3 6 6 5 4 4 6 7 6 8 11 9 9 8 8 7 8 7 7 6 6 7 8 8 7 7 7 4 5 6 5 6 6 5 5 5 4 3 3 3 3 4 3 3 3 4 3 2 2 2 2 1 1 0 1 1 2 1 3 5 4 3 3 3 1 1 3 4
10 9 14 16 15 3 2 4 11 10 10 10 10 9 9 9 7 6 6 5 5 5 5 5 6 5 9 9 8 9 10 9 8 8 8 8 8 8 7 7 7 7 6 5 5 4 4 5 5 5 6 5 5 5 5 3 3 5 4 5 5 4 4 4 3 4 2 2 2 2 2 1 1 1 1 2 2 1 2 4 5 5 5 6 6 6 6
2 7 3 5 7 5 2 6 4 5 8 7 7 6 9 9 10 9 8 7 6 6 5 7 7 7 7 8 9 10 10 10 9 8 7 7 6 6 7 7 6 6 6 6 5 5 5 6 5 6 7 6 6 7 6 4 4 5 5 5 4 3 3 3 3 3 2 2 2 2 2 1 1 1 1 2 2 2 1 1 2 4 7 9 9 8 9
2 6 12 6 2 2 5 6 8 7 7 6 10 11 9 11 10 9 8 8 7 6 6 7 8 8 8 6 10 8 10 9 8 8 7 7 6 6 5 5 7 7 7 6 6 6 7 7 7 8 8 7 7 7 7 5 4 5 4 4 4 5 6 3 2 2 2 2 2 1 1 1 1 1 1 1 1 2 2 2 2 1 1 3 9 12 8
4 2 2 12 13 13 11 3 6 9 6 8 10 11 10 10 11 12 12 10 8 8 7 6 9 10 10 6 9 10 9 8 8 7 8 7 6 5 4 6 7 8 7 7 7 6 7 7 9 9 8 8 7 8 7 5 4 5 4 4 4 3 3 4 3 2 2 1 1 1 1 1 1 1 1 1 2 2 2 2 2 3 2 2 1 7 13
2 2 4 4 3 8 10 9 8 9 10 8 9 10 12 13 11 10 9 7 8 8 8 8 6 6 7 6 5 9 9 9 9 9 8 6 5 5 6 7 8 8 8 7 7 5 6 6 8 8 7 6 7 8 7 6 6 5 5 5 3 4 3 3 3 2 2 2 2 1 2 0 0 0 1 1 1 2 2 3 3 3 3 1 2 1 5
2 0 2 4 4 10 14 9 7 8 9 10 12 9 9 15 12 7 9 9 6 8 8 7 7 7 7 10 8 8 8 9 10 9 8 7 5 3 4 5 8 9 10 9 7 7 8 8 8 8 7 7 7 7 7 6 6 6 6 7 6 5 4 4 2 2 2 2 2 3 1 0 0 0 1 1 1 2 2 2 3 3 2 3 3 3 3
3 3 4 5 6 4 10 10 7 7 9 8 11 11 7 9 15 12 10 9 6 8 7 8 10 11 11 11 10 8 8 8 9 9 8 7 6 4 4 2 3 5 6 5 6 7 9 8 7 7 6 6 7 8 7 6 4 4 4 4 3 6 7 6 4 2 2 1 0 0 0 0 1 1 1 1 2 2 2 2 2 2 2 3 3 3 3
10 7 6 6 5 7 8 5 8 8 8 6 10 10 11 14 17 16 12 10 9 10 10 10 10 11 9 7 9 10 9 9 9 8 8 7 7 6 7 10 11 10 9 9 8 7 7 8 9 7 5 6 7 7 7 5 5 5 4 4 4 3 4 6 2 3 2 2 2 1 1 2 1 1 1 2 2 2 2 2 2 2 2 3 3 3 2
10 10 6 7 7 7 7 4 10 9 9 9 7 8 9 8 10 10 9 9 9 9 8 8 8 9 10 10 9 12 12 12 11 9 7 7 7 6 7 7 8 10 9 7 7 7 7 7 6 6 7 6 7 7 7 6 5 4 4 4 3 3 4 5 4 2 2 1 2 2 2 2 2 2 2 2 2 2 3 3 3 3 3 3 4 4 3
2 1 2 6 3 7 15 12 6 12 10 9 8 9 9 9 10 9 9 10 11 10 8 9 10 10 10 11 11 10 9 10 8 7 7 7 8 7 8 8 9 10 9 8 8 7 6 5 3 4 6 7 6 6 6 5 4 3 3 2 2 2 3 3 2 2 2 1 1 1 1 1 2 2 2 2 2 3 3 3 3 3 3 4 4 3 5
3 3 8 7 9 11 8 10 10 7 10 12 10 10 10 9 9 9 9 9 10 8 8 9 9 8 8 9 10 9 9 9 8 7 7 7 7 8 8 9 10 9 9 8 7 6 5 5 4 3 2 6 6 6 5 4 3 2 2 1 1 1 1 1 2 1 1 1 1 1 1 1 1 2 2 2 2 3 3 3 3 3 4 5 4 3 4
4 6 8 13 14 15 14 12 10 11 11 11 11 11 11 10 10 10 12 10 8 9 8 8 9 10 11 11 11 10 10 6 6 6 7 6 6 6 6 8 8 10 9 8 7 4 3 4 7 6 1 2 3 4 4 3 1 1 1 1 1 1 1 1 1 1 1 1 1 2 1 2 2 2 2 2 2 2 3 3 3 3 4 4 4 4 4
9 9 8 10 11 14 15 13 11 13 13 12 12 12 12 11 11 9 9 9 7 6 8 8 10 11 9 7 6 7 6 5 4 4 3 3 3 5 6 5 6 5 5 5 3 4 2 4 6 5 3 3 3 4 6 7 3 2 1 2 2 2 2 2 2 2 1 1 1 2 2 2 2 2 2 2 2 2 3 3 3 3 4 4 4 4 5
10 12 12 11 13 16 16 13 12 14 18 18 13 11 9 9 9 11 10 10 8 6 6 8 9 9 7 7 7 7 7 6 5 4 3 3 3 6 4 4 3 2 4 3 1 2 3 5 7 4 4 4 4 3 5 9 8 3 2 2 2 2 2 2 2 2 2 2 2 2 2 2 2 2 3 2 2 2 3 3 3 3 4 4 4 4 4
12 11 12 12 14 16 17 15 15 13 11 16 14 12 9 9 7 8 9 10 9 6 8 9 9 10 9 8 7 6 6 5 4 3 4 5 4 7 6 5 5 5 4 3 3 3 4 6 5 4 4 4 3 2 4 8 8 2 2 2 2 1 2 1 1 2 2 2 2 2 2 2 2 2 3 3 3 3 3 4 4 4 4 5 5 5 5
10 11 10 13 16 14 13 13 12 13 13 11 11 11 6 7 7 8 8 10 9 8 7 6 8 8 6 7 7 6 5 5 4 4 5 6 7 8 6 6 5 5 4 4 3 3 5 7 5 3 3 3 4 4 4 6 6 2 2 1 1 1 1 1 1 1 2 2 2 3 2 2 2 3 3 3 3 3 4 4 4 4 5 4 4 5 5
10 11 9 11 11 9 10 11 11 9 9 10 10 9 6 6 6 10 9 8 6 7 8 6 8 7 7 7 7 6 4 4 4 4 3 2 3 2 4 3 2 3 4 4 3 3 3 3 4 3 3 3 3 5 4 6 4 1 1 1 1 1 1 1 1 2 2 2 2 2 2 3 3 3 4 3 4 5 5 5 5 4 4 5 5 5 6
10 11 10 10 9 10 10 10 10 12 10 9 9 9 9 7 9 11 8 7 7 8 9 9 9 8 6 6 5 5 5 4 4 4 4 3 3 2 3 2 3 2 4 4 3 2 2 2 2 3 3 3 3 6 8 5 2 2 1 2 1 1 1 2 2 2 2 2 2 2 3 3 3 4 4 4 4 5 5 5 5 5 5 5 6 6 6
11 12 12 11 11 10 9 9 10 11 10 9 7 8 8 8 8 9 9 8 8 7 8 7 7 6 5 4 4 5 4 3 3 3 4 5 4 4 3 4 4 2 3 2 2 1 1 1 1 1 3 3 3 7 7 3 2 2 1 1 1 1 1 2 2 2 2 2 2 2 2 3 4 4 4 4 4 4 4 5 5 5 5 6 6 6 7
11 9 8 10 10 7 7 9 8 8 11 8 7 7 8 9 8 8 8 7 7 7 6 5 5 5 4 3 3 3 3 3 2 2 2 2 4 4 5 3 3 2 2 2 1 1 0 0 0 2 4 5 6 6 4 2 2 1 1 1 1 2 2 2 2 2 2 3 2 3 3 3 3 4 4 5 5 5 5 5 5 5 6 6 7 7 7
9 9 9 10 8 8 8 7 8 10 8 6 7 9 8 7 7 7 7 7 7 5 5 5 4 4 3 3 3 3 2 2 1 2 2 0 0 2 3 2 1 1 2 4 2 1 1 1 2 5 5 6 6 7 3 2 2 2 2 2 2 2 2 2 2 2 3 3 3 3 4 4 4 4 4 5 6 6 6 6 6 6 6 7 7 8 7
9 9 8 7 10 9 7 8 7 7 7 7 8 8 7 6 5 5 6 6 5 5 3 3 3 3 3 2 1 1 1 1 1 0 1 2 2 2 3 2 2 3 4 4 2 2 1 2 3 5 6 6 6 4 2 2 2 2 2 2 2 3 3 2 3 2 3 3 3 3 3 3 3 3 4 5 6 6 7 8 7 7 7 7 8 8 8
9 9 9 9 8 6 7 5 4 6 5 5 7 5 5 5 5 4 4 4 4 3 3 2 2 2 2 2 1 2 2 2 1 2 1 1 2 2 1 1 2 2 3 2 3 2 2 2 4 5 6 7 6 3 3 2 2 2 2 2 2 2 3 3 3 3 3 3 4 5 5 6 5 5 6 6 6 7 6 6 6 6 6 7 7 8 8
7 8 7 7 7 5 4 4 5 6 8 6 4 3 3 3 3 3 2 2 2 2 2 1 1 1 1 1 1 1 1 1 1 1 3 2 1 1 1 1 2 4 5 5 6 6 6 6 6 6 6 6 4 2 2 2 2 2 2 2 3 2 3 2 3 3 3 3 3 3 3 4 4 4 5 5 5 6 6 7 7 7 7 7 7 7 8
6 6 5 5 5 5 5 4 5 5 5 3 3 3 3 1 1 2 2 2 2 2 1 1 1 0 1 1 1 0 1 2 1 0 2 2 2 2 2 2 4 4 3 2 2 2 3 4 6 6 6 5 2 2 2 2 2 3 3 3 3 3 3 3 3 3 3 3 4 4 5 5 5 5 5 6 6 6 7 6 7 7 6 7 7 7 7
3 3 4 4 4 5 5 4 4 4 2 2 3 3 2 2 2 3 3 3 3 2 2 1 1 1 1 1 2 1 0 1 2 2 3 2 2 2 2 2 2 4 5 3 3 3 4 4 4 4 4 2 2 2 2 2 2 3 3 4 4 3 4 5 6 7 6 6 5 6 6 6 5 6 7 6 6 6 6 6 7 8 12 10 8 8 8
5 5 4 3 3 3 4 4 3 3 2 2 2 2 2 3 2 2 3 3 3 3 3 3 2 1 1 1 1 1 0 1 1 2 2 2 2 3 3 3 3 4 4 3 2 3 2 2 2 2 2 2 2 2 3 2 2 3 4 4 3 4 4 5 5 4 4 5 5 5 6 6 6 6 5 6 6 7 7 7 7 7 6 6 7 7 7
3 3 3 2 2 2 2 2 2 2 2 2 3 3 3 2 2 2 1 1 1 2 2 3 3 1 2 1 1 1 0 1 1 1 2 3 2 2 3 4 3 3 3 2 2 2 3 3 4 4 4 3 3 3 4 5 4 4 4 5 4 4 5 6 5 5 4 6 5 6 6 6 6 6 6 6 6 7 7 7 7 7 6 6 7 7 7
Wind_Direction
172 163 171 156 163 175 177 185 183 184 187 193 198 216 226 214 209 223 231 228 241 252 236 226 220 216 203 207 214 195 152 108 226 267 292 307 301 276 253 260 330 315 294 236 212 204 207 203 203 200 195 191 198 211 215 215 215 220 214 206 217 213 205 207 196 174 156 159 144 124 127 130 135 140 146 148 140 147 162 168 173 182 181 163 151 147 142
138 170 164 163 172 175 175 186 190 190 188 195 204 218 222 218 221 235 245 232 238 248 246 228 233 219 227 186 132 106 123 227 246 265 268 261 262 259 281 306 291 265 248 245 220 210 201 203 205 204 200 199 194 203 207 207 202 196 166 193 210 215 213 216 192 164 153 137 133 132 140 149 150 149 148 148 148 152 159 155 145 139 155 165 159 156 153
172 186 164 165 177 175 185 192 191 191 192 200 208 218 226 221 233 240 242 247 269 264 250 257 254 230 214 96 143 218 235 249 260 261 258 252 243 237 237 222 214 200 215 219 220 213 217 210 204 200 206 200 190 193 204 206 201 189 177 176 198 199 219 216 175 142 146 150 140 148 150 139 140 144 145 146 150 150 151 147 144 148 161 159 157 157 157
165 198 169 173 173 176 178 184 193 195 196 206 211 215 214 194 220 232 241 255 254 258 116 234 233 226 227 224 227 238 240 231 234 241 254 263 268 247 219 217 193 187 197 206 212 220 215 211 208 207 199 194 186 197 194 206 196 161 174 178 179 188 190 146 157 164 153 142 151 153 150 155 153 151 145 149 157 159 157 154 151 144 161 177 151 156 158
175 166 169 162 138 111 203 208 198 199 204 207 211 221 215 213 216 224 217 230 235 258 123 232 227 208 207 223 244 250 253 260 261 251 241 228 236 247 239 223 216 201 205 211 211 211 207 205 201 199 183 180 198 189 187 198 166 165 180 177 177 176 164 160 164 156 141 151 157 163 172 155 148 144 153 155 158 159 167 163 148 158 163 162 162 157 162
128 141 136 121 138 202 216 212 203 194 199 202 203 210 211 216 213 224 222 230 227 166 155 198 217 201 210 222 229 231 243 248 249 254 262 268 258 232 227 220 222 202 201 205 210 216 211 204 199 187 179 178 179 167 164 163 163 179 179 182 182 176 164 164 158 153 154 160 166 164 149 150 155 157 161 169 162 155 143 146 162 164 164 166 161 164 167
153 150 130 159 202 225 226 105 173 200 203 196 207 220 210 213 215 227 238 244 239 221 220 221 228 225 221 221 234 235 228 232 244 249 248 244 253 260 258 251 228 230 231 229 214 203 207 204 186 163 161 162 137 137 143 154 171 176 187 185 187 175 166 162 153 156 160 166 165 152 146 152 161 172 169 155 153 159 162 167 169 171 168 165 168 165 162
114 146 168 188 222 224 90 121 167 172 187 202 210 232 223 215 212 216 230 238 239 239 246 241 236 233 231 239 237 229 231 233 237 243 243 242 243 251 252 233 240 221 220 222 222 220 127 139 186 193 172 157 149 160 151 166 178 188 188 191 186 177 169 157 160 164 164 165 162 157 157 154 157 170 169 168 166 158 155 157 153 144 156 162 163 167 168
156 181 182 216 1 21 225 234 183 166 187 191 193 216 229 216 215 214 226 235 234 238 248 247 242 233 238 252 250 225 230 234 236 239 250 256 260 266 273 268 138 159 195 207 184 131 138 153 169 199 168 150 151 149 156 168 173 182 187 191 190 183 174 166 168 165 163 162 160 158 160 163 174 174 166 159 152 144 151 162 161 165 168 171 170 168 168
155 163 187 208 246 256 233 218 187 183 190 191 190 209 263 192 212 214 226 234 226 230 237 240 238 176 241 258 253 220 219 230 235 237 247 255 260 260 265 269 160 162 166 101 88 166 159 156 157 155 159 158 151 149 159 160 169 184 189 197 189 180 175 165 161 157 161 163 163 162 163 176 179 175 158 146 157 163 167 164 169 172 161 160 165 170 171
140 173 183 201 213 232 247 137 165 163 124 122 113 176 253 200 186 198 211 218 215 219 229 236 210 172 228 245 253 140 186 207 207 227 232 233 241 255 279 292 290 157 113 117 141 154 160 156 154 148 152 156 150 146 151 155 170 190 198 194 179 177 169 160 156 151 157 162 167 167 173 178 172 170 168 164 158 156 166 160 163 156 161 161 166 170 176
187 175 191 211 209 236 212 158 142 154 141 131 130 165 248 181 177 196 195 206 211 215 223 225 200 201 227 242 237 77 79 100 112 194 229 247 313 352 51 54 41 39 53 98 113 132 138 113 127 137 141 152 145 140 144 142 159 184 189 183 172 160 148 145 147 155 159 164 166 169 174 167 165 167 148 139 155 162 164 150 152 146 121 145 170 175 164
193 194 215 250 249 217 183 173 159 146 144 142 163 213 211 170 178 189 184 197 208 212 220 204 211 221 227 234 120 160 131 109 102 78 77 92 87 24 31 45 34 71 109 118 85 86 89 107 121 132 139 139 147 140 139 152 180 177 174 171 167 158 152 149 154 157 158 168 169 170 167 165 158 154 157 159 158 164 166 160 150 144 164 167 154 152 138
194 199 215 221 256 186 157 168 153 144 135 194 201 136 90 135 104 150 180 191 203 198 205 204 215 230 233 241 113 129 134 139 136 125 115 114 89 73 53 52 30 116 107 113 95 77 64 98 119 137 143 145 150 140 152 172 172 146 142 152 151 147 152 150 149 154 155 155 155 155 149 144 150 144 147 151 159 163 157 160 161 163 158 137 117 120 110
200 209 228 237 250 212 159 137 151 181 170 191 116 134 46 112 145 151 159 186 201 188 206 209 219 233 234 195 172 147 131 129 129 123 112 93 81 54 41 60 48 50 97 78 62 59 50 55 59 91 123 136 127 133 142 141 125 126 132 134 137 144 146 146 148 150 150 153 153 148 152 155 152 155 152 151 154 156 157 149 149 147 140 142 132 118 139
188 201 207 215 252 84 148 154 167 185 332 37 141 134 136 228 177 163 174 192 197 186 197 205 215 221 180 122 115 101 93 90 91 86 85 89 98 102 79 61 53 72 97 85 80 64 56 56 58 63 107 116 116 114 111 105 104 111 123 132 133 137 142 142 142 146 146 145 141 145 148 146 144 145 153 154 143 158 141 142 151 150 168 157 163 173 180
199 205 206 347 165 148 165 169 134 176 201 205 252 135 148 156 201 181 159 194 187 193 198 206 202 197 196 152 141 144 143 125 121 115 105 82 73 66 67 55 40 53 82 89 85 75 69 79 86 79 103 127 124 111 89 95 110 111 111 110 119 125 128 130 132 129 126 125 138 146 147 141 138 146 135 150 150 155 139 159 161 167 167 165 178 173 173
232 159 147 229 170 161 168 37 172 177 185 173 206 135 141 197 170 170 168 166 177 169 167 157 192 203 172 144 148 119 115 117 103 102 100 93 84 84 86 79 66 86 89 94 95 91 80 74 73 61 73 104 112 106 94 98 101 107 113 113 111 113 114 115 105 121 124 117 113 113 138 138 133 145 162 171 173 171 170 173 167 165 170 169 181 182 190
161 234 179 158 182 158 175 166 313 224 177 183 175 178 143 100 97 126 67 105 149 169 160 182 178 169 150 147 125 112 115 132 143 140 134 119 113 114 103 101 119 107 107 100 96 87 80 61 49 40 46 40 45 63 73 93 104 111 115 116 115 111 107 108 100 110 123 134 133 127 137 141 146 145 143 168 163 166 175 172 172 179 178 171 179 190 195
201 274 143 158 171 187 186 174 167 182 191 198 183 58 75 109 97 108 111 115 103 126 159 164 158 145 148 149 142 141 141 138 140 136 133 131 118 93 93 95 94 101 110 112 112 102 88 73 52 46 50 52 46 43 49 65 94 100 101 110 108 95 96 100 113 123 120 110 120 138 153 159 164 159 166 185 186 185 185 187 185 192 190 190 198 200 202
191 5 290 160 162 206 209 187 209 190 185 197 177 143 148 142 123 108 95 51 110 151 158 138 142 142 150 139 135 133 121 125 128 133 125 119 115 116 111 100 119 120 125 118 116 109 103 88 76 71 61 53 40 43 52 56 92 102 91 85 83 85 89 89 95 105 102 116 134 136 135 159 179 175 182 193 204 207 208 204 203 199 202 206 206 209 205
216 213 197 161 161 204 201 204 211 219 205 199 169 136 148 152 137 139 116 92 49 34 51 134 163 154 141 133 132 126 129 127 124 117 113 105 98 85 81 91 98 98 102 112 112 106 91 80 82 78 61 54 40 29 31 38 88 106 107 97 97 92 93 94 97 104 104 111 99 99 128 170 184 69 36 32 4 290 223 214 244 329 39 220 198 205 212
220 201 127 184 191 124 169 198 208 214 202 182 174 189 183 175 140 144 131 125 117 140 108 360 131 135 131 143 132 119 110 114 109 112 112 114 104 98 95 98 92 95 100 99 101 98 92 80 77 71 61 44 34 19 12 20 81 108 116 109 101 102 102 104 100 112 108 118 124 106 118 124 163 227 240 190 247 316 4 5 248 225 145 151 345 280 221
303 126 171 180 191 202 191 196 198 197 181 180 187 194 169 122 133 135 123 90 135 135 107 85 39 113 113 113 106 103 96 96 103 96 86 85 88 89 80 87 98 97 94 92 89 90 78 76 78 73 68 48 30 13 6 18 52 77 74 101 110 110 104 108 101 100 104 107 116 126 126 128 152 203 223 258 222 197 220 233 266 271 260 213 194 212 241
211 181 169 184 199 174 19 193 189 176 171 175 180 172 152 131 101 95 98 82 62 106 121 101 76 71 102 96 98 105 109 100 89 93 88 83 77 83 85 75 69 76 79 80 77 74 70 68 66 61 64 38 18 3 1 19 61 81 73 84 100 101 107 114 113 111 114 118 128 133 134 144 170 193 231 235 263 256 183 221 238 250 259 256 242 234 231
61 140 103 86 64 84 129 71 37 136 158 155 121 97 95 108 112 97 86 92 97 91 101 108 98 81 87 105 102 102 95 100 110 105 99 96 93 81 76 80 84 82 81 74 69 59 58 57 61 54 50 25 11 352 348 9 57 81 83 85 93 109 121 118 120 126 124 123 132 126 140 141 171 196 219 253 275 294 266 176 191 236 243 244 244 243 242
20 130 120 77 130 129 233 171 174 162 136 127 118 105 104 102 96 89 81 69 71 74 84 98 105 102 82 83 102 99 111 111 90 79 81 78 76 80 85 86 85 85 81 76 66 60 65 62 53 47 40 17 1 350 353 1 43 66 73 83 96 83 78 91 97 101 101 112 111 125 125 153 175 198 224 236 254 260 267 280 285 256 215 209 219 220 225
154 113 162 177 195 195 181 119 90 89 81 98 113 114 114 109 103 97 88 90 81 85 85 94 117 116 106 108 110 109 100 95 96 95 87 80 82 79 79 89 89 86 79 70 68 61 61 56 58 54 39 15 359 353 353 0 34 50 51 47 55 63 63 45 45 53 61 63 81 94 149 175 191 203 211 214 221 229 244 247 253 263 271 245 170 199 211
13 16 33 348 22 88 93 105 94 99 105 98 99 114 121 113 104 99 92 96 107 102 93 93 83 83 101 115 105 109 106 102 97 90 89 84 76 80 84 91 88 83 76 72 62 53 57 54 53 55 36 8 360 359 356 17 32 23 25 22 44 52 53 47 40 43 47 45 39 31 36 5 206 230 222 230 234 245 242 247 248 253 248 233 128 183 198
8 3 36 63 98 125 120 114 124 125 125 135 127 127 132 122 111 102 115 118 115 100 106 107 89 73 84 91 75 76 95 97 98 94 85 73 68 66 94 110 106 86 72 54 42 43 57 55 52 48 23 357 2 4 4 22 37 34 40 37 32 29 30 26 29 38 34 39 53 36 351 324 297 269 262 251 251 243 254 255 259 258 259 263 242 232 223
100 78 84 95 99 80 99 112 112 122 126 133 132 126 118 113 120 121 122 119 104 105 103 105 97 95 89 89 90 82 89 90 91 89 84 76 59 32 16 344 81 80 65 58 43 45 53 50 50 40 7 360 7 7 8 19 21 27 36 38 49 51 42 30 32 27 25 32 52 352 309 269 269 260 264 268 264 255 254 252 252 249 259 262 256 252 247
100 74 75 62 65 106 105 117 125 124 133 126 134 134 144 146 145 139 132 123 121 120 117 109 109 108 113 106 105 90 86 92 90 83 80 76 70 59 63 77 86 92 91 75 60 44 47 50 45 24 3 15 18 18 18 13 21 36 30 20 23 29 24 16 35 36 29 15 4 3 348 350 325 314 307 290 285 281 283 276 273 271 271 264 267 265 258
121 108 101 120 107 92 112 139 129 123 127 119 90 69 58 69 72 80 95 104 109 108 99 94 102 106 110 104 95 103 101 97 88 79 74 72 70 72 74 73 78 85 81 72 69 66 57 51 36 24 20 22 26 28 25 24 29 37 25 18 21 25 17 27 14 9 29 15 8 1 356 342 329 320 309 308 304 301 291 289 288 292 280 279 277 284 294
332 328 164 159 135 170 157 144 121 109 77 63 74 73 70 61 70 79 93 100 98 95 95 109 112 114 112 109 110 111 116 104 82 71 64 78 83 79 76 77 77 77 73 70 66 58 52 45 28 28 33 26 22 21 20 17 35 44 30 23 23 20 20 12 7 10 12 13 19 20 313 307 311 310 313 310 305 297 292 290 292 286 283 280 280 280 280
327 350 43 43 60 78 66 89 103 109 110 102 87 78 75 80 83 78 78 82 86 93 103 107 104 103 100 93 87 82 83 87 95 102 104 104 109 113 109 103 95 88 77 62 56 53 52 47 33 355 57 58 45 30 21 15 17 38 26 32 24 35 18 12 8 21 9 358 351 347 342 346 335 337 316 301 289 284 282 276 274 274 277 277 278 284 280
15 43 47 53 58 76 83 81 74 84 90 93 95 96 93 88 87 91 88 84 93 99 99 92 98 95 89 87 90 89 95 98 101 103 106 120 132 133 129 112 105 95 94 82 58 38 25 41 20 6 54 72 67 53 28 355 26 50 37 29 37 28 32 22 15 16 7 4 357 342 344 335 310 284 285 289 285 278 276 273 267 268 265 269 274 275 275
47 72 78 73 66 72 75 75 80 87 86 87 92 93 87 81 80 85 87 85 80 81 97 101 95 83 77 62 63 53 49 59 70 88 95 109 136 128 126 109 94 103 109 89 44 27 24 29 359 14 58 67 54 41 27 20 16 6 19 33 29 26 20 8 15 4 3 357 356 335 326 313 308 302 285 267 271 279 282 277 280 274 270 274 275 276 276
56 67 73 75 80 80 75 77 83 92 96 86 75 72 71 79 50 61 67 59 63 67 73 74 85 94 92 88 70 63 61 57 59 61 72 92 116 111 86 75 69 75 76 77 16 11 34 0 357 12 43 46 32 29 22 17 360 355 26 23 20 10 12 4 360 356 354 345 347 329 329 319 311 304 301 294 281 271 266 274 278 280 283 282 278 274 270
69 68 70 77 83 86 89 75 59 47 60 96 96 83 76 79 78 72 65 58 40 54 84 92 103 98 95 86 80 75 59 49 34 51 76 75 66 81 69 55 50 49 65 38 21 25 20 7 354 10 34 32 10 26 26 16 356 1 10 12 14 1 2 354 350 336 323 315 316 323 319 306 297 295 290 294 291 290 284 277 279 282 286 283 286 282 280
73 74 76 90 91 90 80 76 66 67 44 36 79 91 87 83 77 78 76 65 34 25 47 56 82 83 75 77 80 71 51 40 30 31 68 93 93 94 95 75 58 46 39 33 24 27 7 355 357 20 22 25 18 13 8 359 343 344 356 8 356 346 334 316 321 300 310 306 300 288 277 278 277 286 290 295 291 290 291 289 284 280 278 274 273 271 272
71 87 79 76 81 71 80 84 76 65 65 58 55 56 43 65 91 81 67 69 51 44 44 49 76 73 67 73 77 83 66 47 36 31 6 102 96 86 84 84 89 59 25 23 1 1 358 7 12 16 17 10 10 20 355 338 330 343 349 346 348 342 336 329 323 316 309 313 308 303 296 297 299 291 287 285 286 285 279 273 271 268 270 275 275 274 274
80 88 86 78 72 78 76 86 96 81 62 55 58 61 54 47 67 83 86 82 72 60 66 58 54 74 77 77 84 86 73 54 54 44 35 25 27 77 104 105 95 53 2 2 332 356 359 32 22 49 24 354 348 2 346 320 319 342 333 344 340 339 325 318 303 297 297 298 295 294 294 289 280 282 278 277 273 270 270 272 272 273 269 266 264 268 268
85 88 86 82 78 74 73 71 70 84 81 59 50 55 58 55 66 79 78 70 68 69 65 66 67 68 70 70 88 89 81 70 67 81 78 66 59 17 51 110 113 76 11 354 346 357 8 37 14 51 14 353 328 336 328 321 329 325 331 324 326 320 307 298 293 291 291 280 273 274 269 269 273 273 279 277 277 274 274 273 272 272 273 274 271 271 272
77 65 63 81 83 74 75 80 80 74 74 57 48 57 59 58 49 53 65 72 70 62 64 62 59 63 56 40 44 67 62 43 35 28 85 108 99 71 69 70 87 94 55 10 349 328 331 350 53 4 337 330 333 331 321 300 296 299 296 313 308 299 288 277 273 267 260 264 264 264 264 265 267 268 272 277 278 278 276 276 278 278 277 277 279 280 277
53 59 69 74 75 67 62 63 70 77 89 92 68 56 50 53 51 48 54 68 73 70 65 65 60 54 46 37 49 39 33 16 10 347 23 39 86 80 104 75 12 42 26 350 316 318 314 306 347 332 321 323 323 326 308 288 293 295 303 297 280 276 270 269 261 261 261 259 261 262 264 265 265 267 268 269 276 277 279 280 276 279 282 283 281 280 278
57 60 60 59 62 60 65 78 83 95 104 102 86 64 48 47 61 61 50 51 60 60 61 69 72 54 51 47 33 5 303 263 200 277 28 18 32 79 83 58 357 20 331 327 304 308 293 323 310 308 313 314 319 309 291 285 283 289 275 266 259 259 261 262 263 262 264 261 259 265 262 258 264 262 264 267 270 272 275 277 281 279 278 276 278 278 281
65 58 52 59 65 62 71 77 89 96 95 76 71 67 37 30 36 57 61 52 55 52 51 38 55 48 40 41 30 27 32 35 100 98 81 70 84 63 25 8 298 316 320 319 302 296 302 312 308 307 307 309 310 296 280 279 279 270 273 269 272 271 272 270 266 264 264 264 267 268 268 264 261 262 263 263 264 265 266 267 265 270 272 275 276 278 277
58 58 49 48 64 73 84 75 66 59 57 57 67 78 59 42 43 54 66 66 41 55 72 74 59 68 80 69 344 307 316 1 29 90 97 59 37 65 330 322 329 322 305 277 270 264 264 273 286 293 300 308 305 271 273 266 271 276 273 272 268 264 267 266 271 271 271 275 270 263 260 264 264 262 263 265 264 267 266 268 269 272 274 276 278 279 280
56 66 70 63 56 53 55 58 65 68 67 69 74 76 60 51 139 100 68 43 41 62 83 96 120 166 156 157 201 239 249 299 305 282 60 82 317 311 304 303 296 296 292 284 282 285 274 274 290 291 299 296 273 266 265 267 262 264 267 266 268 271 269 269 264 268 274 275 270 268 267 265 262 260 260 263 265 265 267 268 271 273 277 280 282 283 283
32 58 49 32 33 31 15 31 54 59 57 49 55 52 7 322 49 46 38 23 14 4 343 4 26 60 85 103 139 155 353 302 303 321 308 300 283 279 276 277 278 281 280 279 285 282 282 279 275 277 279 270 263 261 260 261 258 256 254 261 262 265 264 265 271 269 263 260 260 260 258 257 258 262 266 267 266 265 266 267 269 271 277 278 277 278 278
17 34 44 38 35 40 32 41 45 32 44 47 52 44 36 38 41 12 15 7 360 4 359 353 357 46 87 92 70 46 308 291 252 261 288 292 280 279 270 278 286 281 277 272 273 278 287 286 280 280 272 266 257 254 249 245 253 261 259 258 256 262 268 265 257 255 253 258 261 260 258 261 263 263 261 260 263 266 268 267 268 269 270 269 273 275 278
19 16 24 22 25 6 7 28 42 45 42 35 35 28 29 15 13 348 1 34 14 3 347 348 334 39 100 358 332 334 335 261 287 274 266 268 273 268 272 266 258 256 256 251 260 262 263 266 269 266 257 266 266 265 268 264 256 255 259 264 260 257 255 258 261 260 257 259 254 255 256 259 261 260 260 261 262 260 260 263 266 268 266 267 269 271 274